Regional Weather Roundup
Issued by NWS

Home | Current Version | Previous Version | Graphics & Text | Print | Product List | Glossary On
Versions: 1 2 3 4 5 6 7 8 9 10 11 12 13 14 15 16 17 18 19 20 21 22 23 24 25 26 27 28 29 30 31 32 33 34 35 36 37 38 39 40 41 42 43 44 45 46 47 48 49 50
000
ASUS43 KLMK 180302
RWRKY
KENTUCKY REGIONAL WEATHER ROUNDUP
NATIONAL WEATHER SERVICE LOUISVILLE KY
1100 PM EDT THU APR 17 2014

NOTE "FAIR" INDICATES FEW OR NO CLOUDS BELOW 12,000 FEET
WITH NO SIGNIFICANT WEATHER AND/OR OBSTRUCTIONS TO VISIBILITY.

KYZ001>023-026-027-061>063-070>075-180400-
WESTERN AND SOUTH CENTRAL KENTUCKY

CITY           SKY/WX    TMP DP  RH WIND       PRES   REMARKS
PADUCAH        MOCLDY    56  41  57 CALM      30.25S
HENDERSON      PTCLDY    54  39  58 S7        30.26S
OWENSBORO      PTCLDY    55  40  57 S3        30.27R
HOPKINSVILLE   MOCLDY    57  37  47 SE3       30.26R
BOWLING GREEN  CLEAR     53  37  54 CALM      30.28R
GLASGOW        NOT AVBL
$$

KYZ024-025-028>034-038-045-046-053-180400-
NORTH CENTRAL KENTUCKY

CITY           SKY/WX    TMP DP  RH WIND       PRES   REMARKS
LOUISVILLE/SDF CLEAR     59  37  44 CALM      30.27S
LOUISVILLE/LOU CLEAR     57  37  47 CALM      30.28S
FORT KNOX      CLEAR     51  35  54 W1        30.27R HAZE
$$

KYZ035>037-039>044-047>052-055>060-089>105-180400-
NORTHEAST KENTUCKY

CITY           SKY/WX    TMP DP  RH WIND       PRES   REMARKS
LEXINGTON      CLEAR     54  34  46 E6        30.29R
COVINGTON      PTCLDY    53  34  48 CALM      30.28F
FRANKFORT      CLEAR     47  38  71 CALM      30.27S
$$

KYZ054-064>069-076>088-106>120-180400-
SOUTHEAST KENTUCKY

CITY           SKY/WX    TMP DP  RH WIND       PRES   REMARKS
JACKSON        CLEAR     60  19  20 S3        30.29S
LONDON         CLEAR     53  32  44 CALM      30.29F
SOMERSET       NOT AVBL
MIDDLESBORO    NOT AVBL
MONTICELLO     PTCLDY    43  38  82 CALM      30.32R
$$




USA.gov is the U.S. government's official web portal to all federal, state and local government web resources and services.